FW9113 Weather Reports


time (UTC)temp
C
wind
direction
speed
KPH
gust
KPH
rain 1hr
cm
rain 24hr
cm
rain mn
cm
humidity
%
barometer
mb
20220526083204 17 209 1.6 4.8 0.00 0.00 0.00 76 1019.9
20220526082709 17 217 1.6 4.8 0.00 0.00 0.00 76 1020.0
20220526082205 17 221 1.6 4.8 0.00 0.00 0.00 72 1019.9
20220526081705 17 311 1.6 12.9 0.00 0.00 0.00 68 1019.9
20220526081204 18 323 1.6 12.9 0.00 0.00 0.00 68 1019.8
20220526080707 18 304 1.6 9.7 0.00 0.00 0.00 72 1019.8
20220526080205 17 225 1.6 12.9 0.00 0.00 0.00 74 1019.7
20220526075703 17 333 0.0 12.9 0.00 0.00 0.00 74 1019.7
20220526075156 17 215 0.0 9.7 0.00 0.00 0.00 78 1019.7
20220526074659 16 228 0.0 4.8 0.00 0.00 0.00 78 1019.7
20220526074153 17 236 0.0 4.8 0.00 0.00 0.00 78 1019.7
20220526073655 17 236 0.0 4.8 0.00 0.00 0.00 76 1019.8
20220526073158 16 246 1.6 4.8 0.00 0.00 0.00 77 1019.6
20220526072704 16 29 0.0 4.8 0.00 0.00 0.00 78 1019.7
20220526072147 16 218 0.0 4.8 0.00 0.00 0.00 79 1019.6
20220526071648 16 163 0.0 4.8 0.00 0.00 0.00 81 1019.5
20220526071147 16 333 0.0 6.4 0.00 0.00 0.00 83 1019.5
20220526070646 16 322 0.0 6.4 0.00 0.00 0.00 84 1019.5
20220526070147 15 236 0.0 3.2 0.00 0.00 0.00 86 1019.4
20220526065646 15 242 0.0 6.4 0.00 0.00 0.00 86 1019.4
20220526065145 15 242 0.0 6.4 0.00 0.00 0.00 86 1019.3
20220526064651 15 215 0.0 4.8 0.00 0.00 0.00 86 1019.3
20220526064143 15 232 0.0 3.2 0.00 0.00 0.00 87 1019.2
20220526063645 15 296 0.0 4.8 0.00 0.00 0.00 88 1019.1
20220526063144 15 348 0.0 4.8 0.00 0.00 0.00 88 1019.1
20220526062642 15 220 0.0 6.4 0.00 0.00 0.00 88 1019.0
20220526062143 15 219 0.0 6.4 0.00 0.00 0.00 88 1018.9
20220526061641 15 244 0.0 4.8 0.00 0.00 0.00 89 1018.9
20220526061139 15 245 0.0 4.8 0.00 0.00 0.00 89 1018.9
20220526060641 15 247 0.0 3.2 0.00 0.00 0.00 89 1018.8
20220526060139 15 233 0.0 3.2 0.00 0.00 0.00 89 1018.8
20220526055646 15 233 0.0 4.8 0.00 0.00 0.00 89 1018.8
20220526055144 14 234 0.0 4.8 0.00 0.00 0.00 90 1018.8
20220526054641 14 231 0.0 6.4 0.00 0.00 0.00 90 1018.7
20220526054139 14 233 0.0 6.4 0.00 0.00 0.00 90 1018.6
20220526053654 14 210 0.0 3.2 0.00 0.00 0.00 90 1018.6
20220526053138 14 241 0.0 1.6 0.00 0.00 0.00 90 1018.6
20220526052641 14 256 0.0 1.6 0.00 0.00 0.00 90 1018.6
20220526052146 14 218 0.0 1.6 0.00 0.00 0.00 91 1018.5
20220526051639 14 210 0.0 0.0 0.00 0.00 0.00 91 1018.5
20220526051141 14 210 0.0 3.2 0.00 0.00 0.00 91 1018.4
20220526050641 14 218 0.0 3.2 0.00 0.00 0.00 91 1018.3
20220526050137 13 221 0.0 3.2 0.00 0.00 0.00 91 1018.2
20220526045642 13 221 0.0 3.2 0.00 0.00 0.00 91 1018.1
20220526045133 13 236 0.0 4.8 0.00 0.00 0.00 91 1018.1
20220526044637 13 220 0.0 4.8 0.00 0.00 0.00 91 1018.0
20220526044131 13 221 0.0 3.2 0.00 0.00 0.00 91 1018.0
20220526043632 13 179 0.0 4.8 0.00 0.00 0.00 91 1017.9
20220526043133 13 190 0.0 4.8 0.00 0.00 0.00 91 1017.9
20220526042633 13 190 0.0 4.8 0.00 0.00 0.00 90 1017.8
20220526042133 13 190 0.0 4.8 0.00 0.00 0.00 90 1017.7
20220526041632 13 189 0.0 0.0 0.00 0.00 0.00 90 1017.8
20220526041143 13 186 0.0 3.2 0.00 0.00 0.00 90 1017.6
20220526040636 14 217 0.0 3.2 0.00 0.00 0.00 90 1017.6
20220526040131 14 217 0.0 0.0 0.00 0.00 0.00 90 1017.6
20220526035631 14 219 0.0 1.6 0.00 0.00 0.00 90 1017.6
20220526035134 14 219 0.0 1.6 0.00 0.00 0.00 90 1017.6
20220526034636 14 225 0.0 1.6 0.00 0.00 0.00 90 1017.5
20220526034130 14 224 0.0 0.0 0.00 0.00 0.00 89 1017.5
20220526033627 14 221 0.0 0.0 0.00 0.00 0.00 89 1017.5
20220526033125 14 221 0.0 1.6 0.00 0.00 0.00 89 1017.4
20220526032627 14 225 0.0 1.6 0.00 0.00 0.00 89 1017.4
20220526032121 14 213 0.0 0.0 0.00 0.00 0.00 89 1017.4
20220526031614 14 213 0.0 0.0 0.00 0.00 0.00 89 1017.3
20220526031115 14 207 0.0 0.0 0.00 0.00 0.00 89 1017.3
20220526030612 14 218 0.0 0.0 0.00 0.00 0.00 89 1017.3
20220526030114 14 216 0.0 0.0 0.00 0.00 0.00 90 1017.2
20220526025613 14 217 0.0 0.0 0.00 0.00 0.00 89 1017.2
20220526025114 14 217 0.0 0.0 0.00 0.00 0.00 89 1017.2
20220526024614 14 220 0.0 0.0 0.00 0.00 0.00 89 1017.2
20220526024113 14 221 0.0 0.0 0.00 0.00 0.00 89 1017.1
20220526023615 14 217 0.0 0.0 0.00 0.00 0.00 89 1017.1
20220526023121 14 219 0.0 0.0 0.00 0.00 0.00 89 1017.0
20220526022615 14 200 0.0 0.0 0.00 0.00 0.00 89 1017.1
20220526022110 14 223 0.0 3.2 0.00 0.00 0.00 89 1017.0
20220526021610 14 221 0.0 3.2 0.00 0.00 0.00 89 1017.0
20220526021108 14 218 0.0 4.8 0.00 0.00 0.00 89 1016.9
20220526020616 14 220 1.6 4.8 0.00 0.00 0.00 90 1016.9
20220526020106 14 216 0.0 4.8 0.00 0.00 0.00 90 1016.9
20220526015616 14 219 0.0 0.0 0.00 0.00 0.00 90 1016.9
20220526015104 13 219 0.0 0.0 0.00 0.00 0.00 90 1016.8
20220526014605 13 246 0.0 0.0 0.00 0.00 0.00 90 1016.8
20220526014103 13 215 0.0 4.8 0.00 0.00 0.00 90 1016.7
20220526013556 13 219 0.0 4.8 0.00 0.00 0.00 90 1016.7
20220526013048 13 218 0.0 4.8 0.00 0.00 0.00 90 1016.6
20220526012543 14 220 0.0 4.8 0.00 0.00 0.00 90 1016.6
20220526012039 14 229 0.0 0.0 0.00 0.00 0.00 90 1016.6
20220526011536 14 215 0.0 0.0 0.00 0.00 0.00 89 1016.6
20220526011038 14 213 0.0 0.0 0.00 0.00 0.00 89 1016.6
20220526010540 14 217 0.0 3.2 0.00 0.00 0.00 89 1016.5
20220526010037 14 213 0.0 3.2 0.00 0.00 0.00 89 1016.6
20220526005537 14 226 0.0 3.2 0.00 0.00 0.00 89 1016.6
20220526005036 14 218 0.0 6.4 0.00 0.00 0.00 89 1016.5
20220526004538 14 223 1.6 6.4 0.00 0.00 0.00 88 1016.5
20220526004035 14 215 1.6 6.4 0.00 0.00 0.00 88 1016.5
20220526003536 14 216 1.6 6.4 0.00 0.00 0.00 88 1016.5
20220526003046 14 222 0.0 6.4 0.00 0.00 0.00 87 1016.4
20220526002536 14 217 0.0 4.8 0.00 0.00 0.00 87 1016.5
20220526002033 14 218 0.0 4.8 0.00 0.00 0.00 86 1016.4
20220526001537 14 221 0.0 6.4 0.00 0.00 0.00 86 1016.5
20220526001035 14 220 1.6 6.4 0.00 0.00 0.00 85 1016.4
20220526000534 14 219 1.6 8.0 0.00 0.00 0.00 85 1016.4
20220526000040 14 218 1.6 8.0 0.00 0.00 0.00 85 1016.5
20220525235532 14 215 0.0 0.0 0.00 0.00 0.00 85 1016.5
20220525235027 14 302 0.0 3.2 0.00 0.00 0.00 84 1016.5
20220525234529 14 212 0.0 6.4 0.00 0.00 0.00 84 1016.5
20220525234027 14 205 0.0 6.4 0.00 0.00 0.00 84 1016.5
20220525233529 14 219 1.6 6.4 0.00 0.00 0.00 84 1016.5
20220525233033 14 222 0.0 6.4 0.00 0.00 0.00 84 1016.4
20220525232531 14 219 1.6 4.8 0.00 0.00 0.00 84 1016.4
20220525232038 14 206 1.6 6.4 0.00 0.00 0.00 84 1016.4
20220525231531 14 213 1.6 6.4 0.00 0.00 0.00 84 1016.3
20220525231030 14 231 0.0 6.4 0.00 0.00 0.00 83 1016.3
20220525230526 14 221 0.0 6.4 0.00 0.00 0.00 83 1016.3
20220525230028 14 219 0.0 0.0 0.00 0.00 0.00 83 1016.3
20220525225527 14 217 0.0 0.0 0.00 0.00 0.00 83 1016.3
20220525225026 14 217 0.0 0.0 0.00 0.00 0.00 82 1016.4
20220525224526 14 209 0.0 0.0 0.00 0.00 0.00 82 1016.4
20220525224026 14 214 0.0 0.0 0.00 0.00 0.00 82 1016.3
20220525223526 14 216 0.0 0.0 0.00 0.00 0.00 82 1016.2
20220525223027 14 210 0.0 3.2 0.00 0.00 0.00 82 1016.3
20220525222527 14 232 0.0 6.4 0.00 0.00 0.00 81 1016.3
20220525222025 14 216 0.0 6.4 0.00 0.00 0.00 81 1016.2
20220525221524 14 212 1.6 6.4 0.00 0.00 0.00 81 1016.2
20220525221020 14 207 1.6 6.4 0.00 0.00 0.00 81 1016.2
20220525220518 14 216 0.0 1.6 0.00 0.00 0.00 81 1016.2
20220525220017 14 205 0.0 0.0 0.00 0.00 0.00 81 1016.2
20220525215632 14 223 0.0 0.0 0.00 0.00 0.00 81 1016.1
20220525215520 14 218 0.0 0.0 0.00 0.00 0.00 82 1016.2
20220525215401 14 213 0.0 0.0 0.00 0.00 0.00 82 1016.2
20220525215252 14 218 0.0 0.0 0.00 0.00 0.00 82 1016.2
20220525215140 14 229 0.0 6.4 0.00 0.00 0.00 82 1016.1
20220525215030 14 218 0.0 6.4 0.00 0.00 0.00 82 1016.2
20220525212512 14 222 0.0 4.8 0.00 0.00 0.00 83 1016.2
20220525212013 14 219 0.0 4.8 0.00 0.00 0.00 83 1016.1
20220525211512 14 219 0.0 4.8 0.00 0.00 0.00 83 1016.2
20220525211011 14 229 1.6 6.4 0.00 0.00 0.00 83 1016.1
20220525210505 14 224 0.0 6.4 0.00 0.00 0.00 83 1016.1
20220525210014 14 228 0.0 6.4 0.00 0.00 0.00 83 1016.2
20220525205506 14 204 0.0 4.8 0.00 0.00 0.00 82 1016.1
20220525205013 13 206 0.0 3.2 0.00 0.00 0.00 82 1016.2
20220525204507 13 216 0.0 6.4 0.00 0.00 0.00 82 1016.2
20220525204011 14 215 0.0 6.4 0.00 0.00 0.00 82 1016.2
20220525203505 14 225 0.0 4.8 0.00 0.00 0.00 81 1016.1
20220525203011 14 202 0.0 4.8 0.00 0.00 0.00 81 1016.1
20220525202512 13 207 0.0 0.0 0.00 0.00 0.00 82 1016.1
20220525202008 13 204 0.0 0.0 0.00 0.00 0.00 82 1016.1
20220525201507 13 221 0.0 6.4 0.00 0.00 0.00 81 1016.1
20220525201017 14 211 0.0 6.4 0.00 0.00 0.00 80 1016.1
20220525200514 14 209 1.6 9.7 0.00 0.00 0.00 80 1016.0
20220525200021 14 218 1.6 9.7 0.00 0.00 0.00 79 1015.9
20220525195507 14 217 1.6 8.0 0.00 0.00 0.00 78 1015.9
20220525195009 14 211 1.6 8.0 0.00 0.00 0.00 78 1015.9
20220525194507 15 207 0.0 6.4 0.00 0.00 0.00 76 1015.8
20220525194004 15 209 1.6 6.4 0.00 0.00 0.00 75 1015.7
20220525193507 15 300 1.6 6.4 0.00 0.00 0.00 74 1015.6
20220525193002 15 206 1.6 9.7 0.00 0.00 0.00 73 1015.5
20220525192454 15 280 1.6 9.7 0.00 0.00 0.00 72 1015.4
20220525191952 15 236 1.6 8.0 0.00 0.00 0.00 71 1015.4
20220525191449 15 220 1.6 8.0 0.00 0.00 0.00 71 1015.4
20220525190949 15 245 1.6 11.3 0.00 0.00 0.00 71 1015.3
20220525190449 15 228 1.6 11.3 0.00 0.00 0.00 70 1015.3
20220525185947 15 215 0.0 6.4 0.00 0.00 0.00 71 1015.3
20220525185445 15 216 1.6 8.0 0.00 0.00 0.00 71 1015.3
20220525184946 15 214 1.6 9.7 0.00 0.00 0.00 71 1015.3
20220525184441 15 219 3.2 11.3 0.00 0.00 0.00 70 1015.2
20220525183943 15 213 1.6 11.3 0.00 0.00 0.00 69 1015.2
20220525183439 16 214 1.6 9.7 0.00 0.00 0.00 69 1015.2
20220525182938 16 215 1.6 11.3 0.00 0.00 0.00 69 1015.1
20220525182442 16 204 1.6 11.3 0.00 0.00 0.00 68 1015.1
20220525181939 16 219 0.0 9.7 0.00 0.00 0.00 68 1015.1
20220525181438 16 219 1.6 11.3 0.00 0.00 0.00 68 1015.1
20220525180937 16 206 0.0 11.3 0.00 0.00 0.00 68 1015.1
20220525180452 16 217 1.6 8.0 0.00 0.00 0.00 67 1015.1
20220525175934 16 215 0.0 8.0 0.00 0.00 0.00 67 1015.1
20220525175431 16 196 0.0 4.8 0.00 0.00 0.00 67 1015.0
20220525174930 16 219 0.0 6.4 0.00 0.00 0.00 67 1014.9
20220525174420 16 213 1.6 8.0 0.00 0.00 0.00 67 1014.9
20220525173924 16 255 1.6 8.0 0.00 0.00 0.00 66 1015.0
20220525173414 16 214 0.0 9.7 0.00 0.00 0.00 66 1014.8
20220525172918 16 213 0.0 9.7 0.00 0.00 0.00 66 1014.9
20220525172412 16 214 1.6 11.3 0.00 0.00 0.00 65 1014.8
20220525171912 16 211 1.6 11.3 0.00 0.00 0.00 64 1014.7
20220525171415 16 214 1.6 11.3 0.00 0.00 0.00 64 1014.7
20220525170913 16 217 1.6 11.3 0.00 0.00 0.00 64 1014.7
20220525170414 16 215 0.0 3.2 0.00 0.00 0.00 65 1014.7
20220525165912 16 221 1.6 9.7 0.00 0.00 0.00 64 1014.7
20220525165412 17 226 1.6 9.7 0.00 0.00 0.00 63 1014.7
20220525164912 17 219 0.0 9.7 0.00 0.00 0.00 64 1014.6
20220525164410 17 216 0.0 9.7 0.00 0.00 0.00 65 1014.6
20220525163910 17 200 0.0 8.0 0.00 0.00 0.00 64 1014.6
20220525163409 17 220 0.0 0.0 0.00 0.00 0.00 65 1014.6
20220525162915 17 222 0.0 0.0 0.00 0.00 0.00 65 1014.5
20220525162410 17 227 0.0 6.4 0.00 0.00 0.00 64 1014.4
20220525161908 17 235 0.0 6.4 0.00 0.00 0.00 65 1014.4
20220525161406 17 214 0.0 4.8 0.00 0.00 0.00 65 1014.5
20220525160909 17 214 0.0 4.8 0.00 0.00 0.00 64 1014.4
20220525160405 17 214 0.0 8.0 0.00 0.00 0.00 65 1014.4
20220525155904 17 220 1.6 8.0 0.00 0.00 0.00 65 1014.5
20220525155404 17 217 0.0 8.0 0.00 0.00 0.00 65 1014.5
20220525154910 16 222 0.0 4.8 0.00 0.00 0.00 65 1014.5
20220525154404 17 212 1.6 8.0 0.00 0.00 0.00 64 1014.4
20220525153904 17 220 1.6 8.0 0.00 0.00 0.00 62 1014.4
20220525153400 17 213 1.6 8.0 0.00 0.00 0.00 62 1014.3
20220525152905 17 215 0.0 6.4 0.00 0.00 0.00 61 1014.3
20220525152401 17 211 0.0 8.0 0.00 0.00 0.00 62 1014.2
20220525151902 17 210 1.6 12.9 0.00 0.00 0.00 60 1014.2
20220525151359 17 210 3.2 12.9 0.00 0.00 0.00 60 1014.2
20220525150858 18 215 1.6 9.7 0.00 0.00 0.00 60 1014.2
20220525150404 18 200 0.0 0.0 0.00 0.00 0.00 60 1014.2
20220525145904 18 225 0.0 0.0 0.00 0.00 0.00 61 1014.2
20220525145401 18 169 1.6 9.7 0.00 0.00 0.00 61 1014.2
20220525144903 18 220 1.6 9.7 0.00 0.00 0.00 60 1014.1
20220525144403 17 221 1.6 9.7 0.00 0.00 0.00 60 1014.2
20220525143905 18 203 1.6 9.7 0.00 0.00 0.00 60 1014.2
20220525143352 18 221 1.6 9.7 0.00 0.00 0.00 60 1014.2
20220525142843 18 227 1.6 6.4 0.00 0.00 0.00 59 1014.1
20220525142341 18 224 1.6 9.7 0.00 0.00 0.00 62 1014.1
20220525141840 17 219 0.0 9.7 0.00 0.00 0.00 60 1014.2
20220525141337 17 217 1.6 9.7 0.00 0.00 0.00 60 1014.3
20220525140835 17 146 3.2 11.3 0.00 0.00 0.00 60 1014.2
20220525140333 18 217 1.6 11.3 0.00 0.00 0.00 58 1014.2
20220525135834 18 219 1.6 11.3 0.00 0.00 0.00 57 1014.2
20220525135334 18 225 0.0 11.3 0.00 0.03 0.00 57 1014.1
20220525134846 19 242 0.0 0.0 0.00 0.05 0.00 58 1014.2
20220525134338 18 209 0.0 0.0 0.00 0.05 0.00 59 1014.2
20220525133853 17 221 0.0 0.0 0.00 0.05 0.00 60 1014.2
20220525133351 17 214 0.0 4.8 0.00 0.05 0.00 61 1014.3
20220525132839 17 214 0.0 4.8 0.00 0.05 0.00 61 1014.3
20220525132336 17 208 0.0 8.0 0.00 0.05 0.00 61 1014.3
20220525131834 17 212 0.0 8.0 0.00 0.05 0.00 62 1014.2
20220525131345 17 214 1.6 9.7 0.00 0.05 0.00 60 1014.3
20220525130832 17 224 1.6 9.7 0.00 0.05 0.00 58 1014.3
20220525130332 18 217 1.6 11.3 0.00 0.05 0.00 60 1014.3
20220525125837 18 241 4.8 12.9 0.00 0.05 0.00 58 1014.3
20220525125333 18 199 4.8 14.5 0.00 0.05 0.00 57 1014.1
20220525124833 19 223 1.6 14.5 0.00 0.05 0.00 54 1014.0
20220525124337 19 214 0.0 6.4 0.00 0.05 0.00 57 1014.1
20220525123835 19 204 0.0 6.4 0.00 0.05 0.00 58 1014.1
20220525123348 18 207 1.6 9.7 0.00 0.05 0.00 59 1014.2
20220525122833 18 209 1.6 9.7 0.00 0.05 0.00 59 1014.2
20220525122332 18 200 1.6 11.3 0.00 0.05 0.00 62 1014.2
20220525121836 18 209 1.6 11.3 0.00 0.05 0.00 62 1014.2
20220525121349 18 218 0.0 4.8 0.00 0.05 0.00 63 1014.2
20220525120836 18 211 0.0 6.4 0.00 0.05 0.00 65 1014.3
20220525120335 16 216 0.0 8.0 0.00 0.05 0.00 67 1014.3
20220525115833 16 215 0.0 8.0 0.00 0.05 0.00 66 1014.3
20220525115333 17 213 0.0 4.8 0.00 0.05 0.00 67 1014.3
20220525114833 17 213 0.0 4.8 0.00 0.05 0.00 66 1014.2
20220525114332 17 214 1.6 8.0 0.00 0.05 0.00 63 1014.3
20220525113834 18 214 1.6 12.9 0.00 0.05 0.00 64 1014.4
20220525113322 17 209 0.0 6.4 0.00 0.05 0.00 66 1014.4
20220525112817 17 218 0.0 3.2 0.00 0.05 0.00 70 1014.4
20220525112313 16 218 0.0 3.2 0.00 0.05 0.00 75 1014.4
20220525111812 16 218 0.0 1.6 0.00 0.05 0.00 76 1014.5
20220525111316 16 218 0.0 3.2 0.00 0.05 0.00 71 1014.4
20220525110814 16 218 0.0 3.2 0.00 0.05 0.00 70 1014.3
20220525110317 16 215 0.0 6.4 0.00 0.05 0.00 69 1014.3
20220525105813 16 215 0.0 6.4 0.00 0.05 0.00 67 1014.3
20220525105308 17 214 0.0 4.8 0.00 0.05 0.00 67 1014.4
20220525104807 17 215 0.0 4.8 0.00 0.05 0.00 68 1014.5
20220525104308 17 214 1.6 8.0 0.00 0.05 0.00 67 1014.5
20220525103809 17 214 1.6 9.7 0.00 0.05 0.00 67 1014.5
20220525103306 17 214 1.6 9.7 0.00 0.05 0.00 70 1014.5
20220525102804 17 215 0.0 9.7 0.00 0.05 0.00 68 1014.6
20220525102303 17 227 0.0 1.6 0.00 0.05 0.00 69 1014.6
20220525101806 17 217 0.0 3.2 0.00 0.05 0.00 69 1014.6
20220525101305 17 209 0.0 9.7 0.00 0.05 0.00 70 1014.5
20220525100806 17 209 1.6 9.7 0.00 0.05 0.00 68 1014.6
20220525100306 17 219 1.6 9.7 0.00 0.05 0.00 71 1014.5
20220525095805 16 211 1.6 9.7 0.00 0.05 0.00 72 1014.6
20220525095303 16 212 0.0 8.0 0.00 0.05 0.00 71 1014.5
20220525094808 16 286 0.0 1.6 0.00 0.05 0.00 72 1014.4
20220525094304 16 223 0.0 8.0 0.00 0.05 0.00 71 1014.4
20220525093803 17 220 1.6 8.0 0.00 0.05 0.00 71 1014.3
20220525093305 17 222 1.6 6.4 0.00 0.05 0.00 75 1014.3
20220525092814 16 220 0.0 4.8 0.00 0.05 0.00 71 1014.2
20220525092305 17 219 0.0 8.0 0.00 0.05 0.00 69 1014.2
20220525091806 17 221 0.0 8.0 0.00 0.05 0.00 72 1014.2
20220525091307 16 219 0.0 6.4 0.00 0.05 0.00 75 1014.2
20220525090805 16 219 0.0 6.4 0.00 0.05 0.00 73 1014.2
20220525090305 16 220 0.0 1.6 0.00 0.05 0.00 75 1014.1
20220525085808 16 219 0.0 0.0 0.00 0.05 0.00 76 1014.1
20220525085305 16 219 0.0 4.8 0.00 0.05 0.00 78 1014.1
20220525084804 15 219 0.0 4.8 0.00 0.05 0.00 78 1014.1
20220525084305 15 219 0.0 1.6 0.00 0.05 0.00 78 1014.1
20220525083808 15 220 0.0 0.0 0.00 0.05 0.00 79 1014.2